Powrót do katalogu

THORAD AGENA D DEB

AktywnyLEO
NORAD 4993·DEBRIS·🇺🇸 United States

Wystrzelony Apr 8, 1970 z Vandenberg Space Force Base

Loading…

Następne Przeloty

TLE

Source: Space-Track
1 04993U 70025HP  26223.87351118  .00000639  00000-0  44039-3 0  9999
2 04993 100.2057  18.9034 0082774 204.1259 155.6016 14.02080156846535

Śledź THORAD AGENA D DEB w czasie rzeczywistym z AllMySat

Download on the App Store